Location: Cañada de la Miga
(34.7595°N, 106.2317°W)
Time: 07:24:00
(UTC+00:00)

Explorer 11/Cluster Stage 4 - All Passes

Search period start: 03 December 2021 00:00
Search period end: 13 December 2021 00:00
Orbit: 467 x 1255 km, 28.8° (Epoch: 02 December)

Date Brightness Start Highest point End Pass type
(mag) Time Alt. Az. Time Alt. Az. Time Alt. Az.
03 Dec - 08:31:46 10° SW 08:37:08 31° SSE 08:43:28 10° E visible
03 Dec - 10:18:57 10° WSW 10:25:37 53° S 10:33:21 10° E visible
03 Dec - 12:07:16 10° W 12:14:36 53° S 12:22:34 10° ESE visible
03 Dec - 13:56:25 10° W 14:03:31 34° SSW 14:10:38 10° SE daylight
03 Dec - 15:48:06 10° WSW 15:51:52 14° SSW 15:55:35 10° S daylight
04 Dec - 06:36:40 10° SSE 06:37:59 11° SE 06:39:22 10° SE night (unlit)
04 Dec - 08:20:23 10° SW 08:25:38 33° SSE 08:31:55 10° E night (unlit)
04 Dec - 10:07:39 10° WSW 10:14:06 53° S 10:21:45 10° E visible
04 Dec - 11:55:55 10° W 12:03:04 51° S 12:10:56 10° ESE visible
04 Dec - 13:45:06 10° W 13:51:54 31° SSW 13:58:52 10° SE daylight
04 Dec - 15:37:34 10° SW 15:40:16 12° SW 15:42:58 10° SSW daylight
05 Dec - 06:24:33 10° SSE 06:26:31 12° SSE 06:28:37 10° SE night (unlit)
05 Dec - 08:09:02 10° SW 08:14:10 35° SSE 08:20:23 10° E night (unlit)
05 Dec - 09:56:22 10° WSW 10:02:38 53° S 10:10:07 10° ESE visible
05 Dec - 11:44:36 10° W 11:51:31 48° S 11:59:15 10° ESE visible
05 Dec - 13:33:51 10° WSW 13:40:19 28° SSW 13:47:01 10° SSE daylight
06 Dec - 06:12:43 10° S 06:15:03 13° SSE 06:17:36 10° ESE night (unlit)
06 Dec - 07:57:45 10° SW 08:02:44 36° SSE 08:08:49 10° E night (unlit)
06 Dec - 09:45:07 10° WSW 09:51:10 53° S 09:58:29 10° ESE visible
06 Dec - 11:33:20 10° W 11:39:59 45° SSW 11:47:33 10° ESE visible
06 Dec - 13:22:40 10° WSW 13:28:43 25° SSW 13:35:05 10° SSE visible
07 Dec - 06:01:04 10° S 06:03:38 14° SSE 06:06:27 10° ESE night (unlit)
07 Dec - 07:46:29 10° SW 07:51:19 37° SSE 07:57:15 10° E night (unlit)
07 Dec - 09:33:54 10° WSW 09:39:43 52° S 09:46:50 10° ESE visible
07 Dec - 11:22:07 10° W 11:28:28 41° SSW 11:35:48 10° SE visible
07 Dec - 13:11:34 10° WSW 13:17:08 22° SSW 13:23:03 10° SSE visible
08 Dec - 05:49:31 10° S 05:52:13 16° SSE 05:55:15 10° ESE night (unlit)
08 Dec - 07:35:16 10° SW 07:39:55 39° SSE 07:45:41 10° E night (unlit)
08 Dec - 09:22:43 10° WSW 09:28:18 50° S 09:35:10 10° ESE visible
08 Dec - 11:10:55 10° W 11:16:58 38° SSW 11:24:00 10° SE visible
08 Dec - 13:00:36 10° WSW 13:05:34 19° SSW 13:10:53 10° SSE visible
09 Dec - 05:38:02 10° SSW 05:40:50 17° SSE 05:44:00 10° ESE night (unlit)
09 Dec - 07:24:04 10° WSW 07:28:34 39° SSE 07:34:07 10° E night (unlit)
09 Dec - 09:11:33 10° WSW 09:16:53 48° S 09:23:30 10° ESE visible
09 Dec - 10:59:46 10° WSW 11:05:29 34° SSW 11:12:09 10° SE visible
09 Dec - 12:49:47 10° WSW 12:54:02 16° SSW 12:58:32 10° S visible
10 Dec - 05:26:36 10° SSW 05:29:29 18° SSE 05:32:43 10° ESE night (unlit)
10 Dec - 07:12:54 10° WSW 07:17:14 40° S 07:22:34 10° ESE night (unlit)
10 Dec - 09:00:25 10° WSW 09:05:30 45° S 09:11:49 10° ESE visible
10 Dec - 10:48:40 10° WSW 10:54:01 30° SSW 11:00:16 10° SE visible
10 Dec - 12:39:17 10° SW 12:42:30 13° SSW 12:45:54 10° S visible
11 Dec - 05:15:13 10° SSW 05:18:09 19° SSE 05:21:26 10° ESE night (unlit)
11 Dec - 07:01:44 10° WSW 07:05:54 40° S 07:11:02 10° ESE night (unlit)
11 Dec - 08:49:17 10° WSW 08:54:08 42° S 09:00:08 10° ESE night (unlit)
11 Dec - 10:37:39 10° WSW 10:42:33 26° SSW 10:48:19 10° SE visible
11 Dec - 12:29:34 10° SW 12:31:00 11° SSW 12:32:28 10° SSW visible
12 Dec - 05:03:52 10° SSW 05:06:50 21° SSE 05:10:08 10° ESE night (unlit)
12 Dec - 06:50:36 10° WSW 06:54:36 40° S 06:59:30 10° ESE night (unlit)
12 Dec - 08:38:11 10° WSW 08:42:46 38° S 08:48:26 10° ESE night (unlit)
12 Dec - 10:26:42 10° WSW 10:31:08 22° SSW 10:36:17 10° SSE visible
